STARLINK-31898, 59905

Orbit data source: Space-Track

STARLINK-31898, 59905 is a payload satellite owned by SpaceX/Seattle (US) in LEO that was launched on Tue, 28 May 2024 UTC via an FALCON 9 launch vehicle from the Air Force Eastern Test Range (AFETR). Payload-class satellites include a variety of spacecraft equipped with specific instruments for various scientific and technological missions. These include communications satellites like Starlink; space stations such as the ISS; scientific satellites like the Hubble; Earth observation satellites from companies like Planet Labs, Umbra, and HawkEye 360; GPS; miniature CubeSats for education and research; and military/defense satellites.

Loading next visibility...
Identifier
59905, 2024-100W
Orbit
LEO
Country
Flag of USUS
Related business
Manufacturer
SpaceX/Seattle
Mission
Operational Commercial Communications
Bus & Motor
STARLINK V2M, Unknown motor
Mass
730 kg wet, ~700 kg dry
Launch date (UTC)
2024-05-28 (2 years ago)
Launch vehicle
FALCON 9
Launch site
Air Force Eastern Test Range (AFETR)
Object type
Payload
Rocket body
Debris
Shape & HBR
Box + 2 Pan, 17.7 m
Radar Cross Section
33.884 m², Large (>1 m²)

Expand to show TLE details & history
Last TLE update: 17 hours ago

TLE from 17 hours ago
0 STARLINK-31898
1 59905U 24100W   25354.29098997 -.00002028  00000-0 -64185-4 0  9999
2 59905  42.9999 210.3570 0001280 269.9697  90.1008 15.27583897 89043
Epoch: 2025-12-20T06:59Z
TLE epoch observation values (Epoch: 2025-12-20T06:59:01.533Z)
Latitude
-0.00001°
Longitude
16.4807°
Altitude
482.814 km
Speed
7.626 km/s
True Right ascension
14h 01m 25s
True Declination
0° 00' 00"
Sunlit
Object was in daylight at epoch
Visualization orbit readout
Latitude
Unknown
Longitude
Unknown
Altitude
Unknown
Speed
Unknown
Apparent Right ascension
Unknown
Apparent Declination
Unknown
Sunlit
N/A
Visualization observer readout
Local Sidereal Time
23:14:49
Azimuth
Unknown
Elevation
Unknown
Doppler factor
Unknown
Orbital elements
Apogee altitude
485.861 km
Perigee altitude
484.104 km
Semi-major axis
6,863.12 km
Eccentricity
0.00013
Inclination
42.9999°
RAAN
210.357°
Arg. of periapsis
269.9697°
True anomaly
90.11547°
Mean anomaly
90.1008°
Eccentric anomaly
90.10813°
Mean motion
3.81734 °/min
Orbital period
94.31 mins
BSTAR
-0.000064185
Loading maneuver chart data...
Computing Atmospheric mass density...
Loading historical data...
Loading historical data...
Loading historical data...
Loading historical data...
Loading historical data...
Loading historical data...
Loading historical data...

Documentation

Showing up to 5 results
|